Regional Weather Roundup
Issued by NWS

Home | Current Version | Previous Version | Text Only | Print | Product List | Glossary On
Versions: 1 2 3 4 5 6 7 8 9 10 11 12 13 14 15 16 17 18 19 20 21 22 23 24 25 26 27 28 29 30 31 32 33 34 35 36 37 38 39 40 41 42 43 44 45 46 47 48 49 50
000
ASUS43 KMPX 282010
RWRMN
WEATHER ROUNDUP FOR MINNESOTA
NATIONAL WEATHER SERVICE TWIN CITIES/CHANHASSEN MN
200 PM CST SUN FEB 28 2021


NOTE: "FAIR" INDICATES FEW OR NO CLOUDS BELOW 12,000 FEET WITH NO
SIGNIFICANT WEATHER AND/OR OBSTRUCTIONS TO VISIBILITY. N/A MEANS
CURRENT SKY AND/OR WEATHER CONDITIONS ARE NOT AVAILABLE.

MNZ060>063-068>070-282100-
   Twin Cities Metro

CITY           SKY/WX    TMP DP  RH WIND       PRES   REMARKS
TWIN CITIES    MOSUNNY   31  23  72 NW18G25   29.89R WCI  19
ST PAUL        MOSUNNY   32  23  69 NW20G28   29.89R WCI  20
CRYSTAL        SUNNY     30  20  66 NW18      29.89R WCI  18
BLAINE         MOSUNNY   30  23  74 NW16G23   29.88R WCI  19
LAKEVILLE      MOSUNNY   30  21  69 NW18G24   29.88R WCI  18
EDEN PRAIRIE   SUNNY     31  20  63 NW18G24   29.88R WCI  19
SOUTH ST PAUL  MOSUNNY   32  25  74 NW13G18   29.88R WCI  22
LAKE ELMO      CLOUDY    30  25  80 MISG      29.87R
$$
MNZ001>005-007-008-013>017-022>024-027-028-282100-
   Northwest Minnesota

CITY           SKY/WX    TMP DP  RH WIND       PRES   REMARKS
BEMIDJI        SUNNY     16   5  63 NW14      29.92F WCI   2
HALLOCK        MOSUNNY   16   7  67 NW12      30.03S WCI   3
ROSEAU         PTSUNNY   19   0  42 W15G21    29.96S WCI   5
WARROAD        MOSUNNY   14   3  62 NW14      29.95S WCI  -1
THIEF RVR FALL CLOUDY    16   7  67 NW18      29.99F WCI   0
CROOKSTON      SUNNY     19   7  58 NW17G24   30.01F WCI   4
FOSSTON        MOSUNNY   14   5  67 W12       29.98S WCI   0
DETROIT LAKES  PTSUNNY   16   9  73 NW15G22   29.98S WCI   1
MOORHEAD       SUNNY     21   9  58 NW12      30.03F WCI   9
PARK RAPIDS    SUNNY     20   8  60 NW15      29.91S WCI   6
MAHNOMEN       MOCLDY    16   8  72 NW12      29.98F WCI   3
$$
MNZ006-009>011-018-025>026-282100-
   North Central Minnesota

CITY           SKY/WX    TMP DP  RH WIND       PRES   REMARKS
BAUDETTE       CLOUDY    11   1  64 W13       29.92F WCI  -4
FLAG ISLAND    PTSUNNY   10   0  61 NW14      29.92S WCI  -5
INTL FALLS     CLOUDY    17   3  54 NW10      29.86F WCI   5
WASKISH        CLOUDY    18   5  57 SW12G17   29.92S WCI   5
BIG FORK       MOSUNNY   21   3  45 N7G17     29.91F WCI  13
LONGVILLE      SUNNY     19   7  58 NW10G21   29.90S WCI   8
GRAND RAPIDS   SUNNY     21   9  59 W18       29.86F WCI   6
CRANE LAKE     PTSUNNY   19   7  58 NW9G17    29.85F WCI   9
ORR            SUNNY     19   5  53 W13G23    29.81S WCI   7
COOK           MOSUNNY   21   9  58 W13G18    29.81F WCI   9
WALKER         CLEAR     19   5  54 NW14G21   29.91S WCI   6
$$
MNZ012-019>021-037-282100-
   Northeast Minnesota

CITY           SKY/WX    TMP DP  RH WIND       PRES   REMARKS
DULUTH         MOSUNNY   28  14  55 NW18G32   29.76S WCI  15
ELY            MOSUNNY   25  10  54 NW17G25   29.76S WCI  11
HIBBING        SUNNY     23  12  62 NW17      29.81S WCI   9
EVELETH        SUNNY     24  11  57 NW20      29.80S WCI  10
DULUTH HARBOR  MOSUNNY   30  18  59 NW10      29.81S WCI  21
TWO HARBORS    MOSUNNY   30  16  55 NW8G21    29.74S WCI  23
SILVER BAY     PTSUNNY   30  14  51 W9G21     29.72F WCI  22
GRAND MARAIS     N/A     31  20  63 VRB5G17   29.71F WCI  26
G MARAIS ARPRT PTSUNNY   25  16  68 NW10      29.64F WCI  15
$$
MNZ029>031-032-039>041-046>048-054>057-064-282100-
   West Central Minnesota

CITY           SKY/WX    TMP DP  RH WIND       PRES   REMARKS
FERGUS FALLS   MOSUNNY   19  12  73 NW16      29.97F WCI   5
WHEATON        SUNNY     25  12  58 NW15G21   30.05F WCI  12
MORRIS         SUNNY     21  10  63 NW20G25   30.02S WCI   6
ELBOW LAKE     FAIR      19  11  74 W17       30.01S WCI   3
WADENA         SUNNY     16   7  67 W14G20    29.95R WCI   1
GLENWOOD       SUNNY     18  10  73 NW21      29.97S WCI   1
APPLETON       SUNNY     25  12  58 NW13      30.04S WCI  13
BENSON         SUNNY     19  12  73 N16       30.03S WCI   5
ORTONVILLE     SUNNY     25  12  58 NW14G20   30.03F WCI  13
MADISON        SUNNY     25  14  63 NW16      30.06F WCI  12
WILLMAR        FAIR      19  12  73 NW17      30.03R WCI   4
$$
MNZ033>034-036-042>043-049>051-058-059-282100-
   Central Minnesota

CITY           SKY/WX    TMP DP  RH WIND       PRES   REMARKS
ST CLOUD       SUNNY     26  14  60 NW18      29.91R WCI  13
SAUK CENTRE      N/A     21  10  64 NW15G22   29.96R WCI   7
PAYNESVILLE    SUNNY     21  14  73 W13G20    29.97R WCI   9
AITKIN         SUNNY     27  10  50 NW9G18    29.87S WCI  17
PINE RIVER       N/A     27  10  50 NW12G17   29.92S WCI  16
BRAINERD       SUNNY     28  11  48 NW15G21   29.89R WCI  16
STAPLES        SUNNY     21  10  63 W16       29.93S WCI   7
LONG PRAIRIE   FAIR      23  12  63 NW14G20   29.94S WCI  11
LITTLE FALLS   SUNNY     27   9  46 W16       29.92R WCI  14
CAMP RIPLEY    FAIR      25  12  58 NW15      29.92S WCI  13
LITCHFIELD     SUNNY     25  18  74 W14       29.96R WCI  13
BUFFALO        SUNNY     29  18  64 MISG      29.93R
HUTCHINSON     SUNNY     23  17  77 W18       29.97R WCI   9
$$
MNZ037-044-045-052-053-282100-
   East Central Minnesota

CITY           SKY/WX    TMP DP  RH WIND       PRES   REMARKS
PRINCETON      SUNNY     30  18  59 W14       29.89S WCI  20
MORA           SUNNY     30  16  55 NW16      29.88R WCI  19
CAMBRIDGE      SUNNY     32  18  55 W10       29.87R WCI  24
RUSH CITY      MOSUNNY   30  17  60 NW13G21   29.86R WCI  20
MOOSE LAKE     SUNNY     32  14  47 NW12      29.81S WCI  23
HINCKLEY       CLEAR     32  18  55 NW13      29.84S WCI  22
CLOQUET        SUNNY     27  14  59 W14G21    29.78R WCI  15
MCGREGOR       SUNNY     28  12  50 NW14G22   29.85S WCI  17
$$
MNZ071>073-080-081-089-090-097-098-282100-
   Southwest Minnesota

CITY           SKY/WX    TMP DP  RH WIND       PRES   REMARKS
MONTEVIDEO     SUNNY     19  10  68 N14       30.03S WCI   6
GRANITE FALLS  SUNNY     22  14  71 W17G24    30.06R WCI   8
CANBY          SUNNY     25  15  63 NW13      30.05S WCI  14
MARSHALL       SUNNY     20  13  74 NW16      30.04S WCI   6
REDWOOD FALLS  SUNNY     19  12  74 NW20G28   30.01S WCI   3
OLIVIA         SUNNY     18  14  86 NW17G25   30.01R WCI   2
PIPESTONE      SUNNY     21  16  79 NW22      30.02S WCI   5
WINDOM         SUNNY     19  14  79 W22G29    30.00R WCI   3
WORTHINGTON    SUNNY     25  19  78 NW15      30.01F WCI  13
JACKSON        SUNNY     23  18  80 NW24      29.99R WCI   7
TRACY          SUNNY     21  11  67 NW16      30.02S WCI   7
SLAYTON        SUNNY     22  14  71 NW17      30.01S WCI   7
$$
MNZ065>067-074>077-082>085-091>093-282100-
   South Central Minnesota

CITY           SKY/WX    TMP DP  RH WIND       PRES   REMARKS
MANKATO        PTSUNNY   22  19  89 NW20G25   29.96R WCI   7
NEW ULM        SUNNY     21  12  68 NW17G25   29.99R WCI   7
ST JAMES       SUNNY     21  18  86 NW23G32   29.99R WCI   5
FAIRMONT       SUNNY     24  18  77 NW25G32   29.98R WCI   8
GLENCOE        SUNNY     26  17  69 NW15G21   29.94R WCI  13
FARIBAULT      PTSUNNY   30  25  80 W21       29.91R WCI  17
OWATONNA       PTSUNNY   28  25  86 W21       29.90R WCI  15
WASECA         CLOUDY    27  23  86 W18       29.93R WCI  13
ALBERT LEA     CLOUDY    27  25  93 NW15G25   29.90R WCI  15
$$
MNZ078>079-086>088-094>096-282100-
   Southeast Minnesota

CITY           SKY/WX    TMP DP  RH WIND       PRES   REMARKS
ROCHESTER      CLOUDY    30  26  85 NW24G35   29.83R WCI  16
RED WING       CLOUDY    32  27  80 NW13      29.85R WCI  22
STANTON        CLOUDY    32  25  76 NW20      29.88R WCI  20
DODGE CENTER   CLOUDY    30  25  80 NW20G29   29.85R WCI  18
WINONA         PTSUNNY   36  32  87 NW24      29.79R
AUSTIN         CLOUDY    30  27  86 NW21G30   29.87R WCI  17
PRESTON        CLOUDY    32  28  86 NW24G30   29.81R WCI  19
$$
ABBREVIATIONS USED IN REMARKS
   TC - TEMPERATURES IN CELSIUS
  WCI - WIND CHILL INDEX
   HX - HEAT INDEX
  VSB - VISIBILITY
$$




USA.gov is the U.S. government's official web portal to all federal, state and local government web resources and services.